Regional Weather Roundup
Issued by NWS

Home | Current Version | Previous Version | Text Only | Print | Product List | Glossary On
Versions: 1 2 3 4 5 6 7 8 9 10 11 12 13 14 15 16 17 18 19 20 21 22 23 24 25 26 27 28 29 30 31 32 33 34 35 36 37 38 39 40 41 42 43 44 45 46 47 48 49 50
000
ASUS43 KLSX 041210
RWRMO

WEATHER SUMMARY FOR MISSOURI
NATIONAL WEATHER SERVICE SPRINGFIELD MO
600 AM CST SUN DEC 04 2016

NOTE: "FAIR" INDICATES FEW OR NO CLOUDS BELOW 12,000 FEET WITH NO
       SIGNIFICANT WEATHER AND/OR OBSTRUCTIONS TO VISIBILITY.
       CURRENT SKY AND/OR WEATHER CONDITIONS ARE NOT AVAILABLE FOR
       CHILLICOTHE AND FARMINGTON.

MOZ001>031-035>038-043-044-053-054-041300-
...NORTHERN AND WESTERN MISSOURI...

CITY           SKY/WX    TMP DP  RH WIND       PRES   REMARKS
KANSAS CTY INT LGT RAIN  38  35  89 SW6       30.01F
6HR MIN TEMP:  38; 6HR MAX TEMP:  41; 6HR PCP:  0.48;

KANSAS C DTWN  LGT RAIN  40  38  93 S6        30.03S
6HR MIN TEMP:  40; 6HR MAX TEMP:  43; 6HR PCP:  0.14;

LEE`S SUMMIT   LGT RAIN  39  37  92 SW7       30.02S
6HR MIN TEMP:  38; 6HR MAX TEMP:  41; 6HR PCP: TRACE;

ST JOSEPH      LGT RAIN  39  36  89 W8        30.02F
6HR MIN TEMP:  39; 6HR MAX TEMP:  40; 6HR PCP:  0.42;

CHILLICOTHE      N/A     37  36  96 VRB5      30.05F
6HR MIN TEMP:  37; 6HR MAX TEMP:  42; 6HR PCP:  0.22;

KIRKSVILLE     LGT SNOW  33  33 100 SE7       30.04F FOG     WCI  27
6HR MIN TEMP:  33; 6HR MAX TEMP:  39; 6HR PCP:  0.14;


$$
MOZ066>068-077>081-088>096-101>105-041300-
...SOUTHWEST MISSOURI...

CITY           SKY/WX    TMP DP  RH WIND       PRES   REMARKS
SPRINGFIELD    LGT RAIN  38  37  97 SW5       29.99S FOG
6HR MIN TEMP:  38; 6HR MAX TEMP:  39; 6HR PCP:  0.03;

JOPLIN         LGT RAIN  40  40 100 CALM      30.00F FOG
6HR MIN TEMP:  40; 6HR MAX TEMP:  40; 6HR PCP:  0.09;

BRANSON        CLOUDY    37  37 100 SE5       30.00R FOG

$$
MOZ032>034-039>042-045>050-055>058-069>072-041300-
...CENTRAL MISSOURI...

CITY           SKY/WX    TMP DP  RH WIND       PRES   REMARKS
COLUMBIA       LGT RAIN  37  36  96 SE7       30.03F FOG
6HR MIN TEMP:  37; 6HR MAX TEMP:  39; 6HR PCP:  0.07;

JEFFERSON CITY LGT RAIN  37  36  96 E6        30.05F FOG
6HR MIN TEMP:  37; 6HR MAX TEMP:  40; 6HR PCP:  0.05;

ROLLA          CLOUDY    35  35 100 E7        30.00F FOG     WCI  29
6HR MIN TEMP:  35; 6HR MAX TEMP:  37; 6HR PCP:  0.03;

SEDALIA        LGT RAIN  38  36  92 SE6       30.03F FOG
6HR MIN TEMP:  38; 6HR MAX TEMP:  42; 6HR PCP:  0.07;

WHITEMAN AFB   LGT RAIN  38  38 100 S6        30.01F
WARRENSBURG    LGT RAIN  37  36  93 SE7       30.02F
OSAGE BEACH    MIX PCPN  37  36  96 E3        30.03F FOG

$$
MOZ051-052-059>065-041300-
...EAST CENTRAL MISSOURI...

CITY           SKY/WX    TMP DP  RH WIND       PRES   REMARKS
ST LOUIS INTL  CLOUDY    39  33  79 E8        30.08F
6HR MIN TEMP:  39; 6HR MAX TEMP:  41; 6HR PCP:  0.01;

SPIRIT OF STL  CLOUDY    38  36  92 E3        30.08F FOG
6HR MIN TEMP:  38; 6HR MAX TEMP:  41; 6HR PCP:  0.01;

ST CHARLES     CLOUDY    38  35  89 E8        30.09F
6HR MIN TEMP:  38; 6HR MAX TEMP:  40; 6HR PCP: TRACE;


$$
MOZ072>076-082>087-097>100-106>115-041300-
...SOUTH CENTRAL AND SOUTHEAST MISSOURI...

CITY           SKY/WX    TMP DP  RH WIND       PRES   REMARKS
CAPE GIRARDEAU CLOUDY    39  35  86 E10       30.04F
6HR MIN TEMP:  39; 6HR MAX TEMP:  39; 6HR PCP:  0.01;

FARMINGTON     MIX PCPN  36  35  96 E3        30.05F FOG
6HR MIN TEMP:  36; 6HR MAX TEMP:  36; 6HR PCP:  0.03;

POPLAR BLUFF   CLOUDY    39  38  96 NE6       30.02F FOG
6HR MIN TEMP:  38; 6HR MAX TEMP:  39; 6HR PCP:  0.04;

WEST PLAINS    CLOUDY    37  36  96 E6        29.99F FOG
6HR MIN TEMP:  37; 6HR MAX TEMP:  37; 6HR PCP:  0.01;


$$




USA.gov is the U.S. government's official web portal to all federal, state and local government web resources and services.